Weather in Tyumerevo

Russia / Chuvash Republic     55°26′19″N   47°46′30″E
temp.,
°C
wind,
m/s
gust,
m/s
humid.,
%
clouds,
%
prec.,
mm/h
press.,
hPa
HPBL,
m
29 june, wed
wed2900:00+8nne227916 0.0 102022
03:00+6n4107985 0.0 1021207
06:00+9nne477676 0.0 1021337
09:00+14nnw57610 0.0 10211089
12:00+17nnw575213 0.0 10191818
15:00+18n57495 0.0 10181962
18:00+18nnw36645 0.0 1017295
21:00+12nw22790 0.0 101711
30 june, thu
thu3000:00+10wnw336825 0.0 101638
03:00+10wnw4776100 0.0 1015113
06:00+12wnw4876100 0.0 1014233
09:00+17nw686192 0.0 1012829
12:00+19nnw57465 0.0 10112310
15:00+19nw475095 0.0 10102225
18:00+12nne81383100 0.7 1011545
21:00+9nne510925 2.1 1013413
1 july, fri
fri100:00+6n511925 0.1 1014290
03:00+5n61194100 0.1 1013598
06:00+6n71395100 0.5 1012825
09:00+9ne7119497 0.8 1013934
12:00+11ne71193100 0.6 1015808
15:00+15ne7117678 0.8 10151250
18:00+15ne712774 0.7 1015968
21:00+12nne513845 0.7 1016292
2 july, sat
sat200:00+9nne411873 0.0 1017183
03:00+8n410907 0.0 1017156
06:00+12nne49805 0.0 1017246
09:00+17nne576348 0.0 1016657
12:00+20n56537 0.0 10151708
15:00+21n454881 0.0 10142147
18:00+20n246552 0.0 1013118
21:00+14ne11796 0.0 101311
3 july, sun
sun300:00+15w227194 0.0 101311
03:00+13nnw34837 0.0 101265
06:00+15n58875 0.0 1012295
09:00+18nne5769100 0.0 1012864
12:00+19n5867100 0.0 10121522
15:00+21nne7961100 0.1 10121751
18:00+19ne3570100 0.0 1012318
21:00+14n23795 0.0 101321